TimeEST,TemperatureF,Dew PointF,Humidity,Sea Level PressureIn,VisibilityMPH,Wind Direction,Wind SpeedMPH,Gust SpeedMPH,PrecipitationIn,Events,Conditions,WindDirDegrees,DateUTC
12:15 AM,37.4,26.6,65,30.45,10.0,Calm,Calm,-,N/A,,Overcast,0,2013-01-28 05:15:00
12:35 AM,37.4,26.6,65,30.45,10.0,SSW,3.5,-,N/A,,Overcast,200,2013-01-28 05:35:00
12:55 AM,37.4,26.6,65,30.45,10.0,South,3.5,-,N/A,,Overcast,190,2013-01-28 05:55:00
1:15 AM,37.4,28.4,70,30.44,10.0,South,3.5,-,N/A,,Drizzle,190,2013-01-28 06:15:00
1:35 AM,37.4,28.4,70,30.44,10.0,South,3.5,-,N/A,Rain,Rain,180,2013-01-28 06:35:00
1:55 AM,35.6,30.2,81,30.45,10.0,South,4.6,-,N/A,,Drizzle,190,2013-01-28 06:55:00
2:15 AM,35.6,30.2,81,30.45,10.0,SSW,3.5,-,N/A,,Light Drizzle,200,2013-01-28 07:15:00
2:35 AM,35.6,30.2,81,30.44,7.0,Calm,Calm,-,N/A,Rain,Rain,0,2013-01-28 07:35:00
2:55 AM,35.6,30.2,81,30.43,10.0,South,3.5,-,N/A,,Light Drizzle,190,2013-01-28 07:55:00
3:15 AM,35.6,30.2,81,30.43,10.0,South,4.6,-,N/A,,Drizzle,180,2013-01-28 08:15:00
3:35 AM,35.6,30.2,81,30.42,7.0,South,3.5,-,N/A,,Drizzle,190,2013-01-28 08:35:00
3:55 AM,35.6,30.2,81,30.41,7.0,South,3.5,-,N/A,Rain,Light Rain,190,2013-01-28 08:55:00
4:15 AM,35.6,30.2,81,30.41,7.0,Calm,Calm,-,N/A,,Drizzle,0,2013-01-28 09:15:00
4:35 AM,35.6,32.0,87,30.42,7.0,South,3.5,-,N/A,Rain,Rain,190,2013-01-28 09:35:00
4:55 AM,35.6,35.6,100,30.42,5.0,Calm,Calm,-,N/A,Rain,Light Rain,0,2013-01-28 09:55:00
5:15 AM,35.6,35.6,100,30.41,5.0,South,3.5,-,N/A,,Light Drizzle,180,2013-01-28 10:15:00
5:35 AM,35.6,35.6,100,30.41,5.0,Calm,Calm,-,N/A,,Overcast,0,2013-01-28 10:35:00
5:55 AM,35.6,35.6,100,30.41,4.0,Calm,Calm,-,0.01,Rain,Light Rain,0,2013-01-28 10:55:00
6:15 AM,35.6,35.6,100,30.41,4.0,South,3.5,-,0.01,,Light Drizzle,190,2013-01-28 11:15:00
6:35 AM,35.6,35.6,100,30.42,4.0,Calm,Calm,-,0.01,Rain,Light Rain,0,2013-01-28 11:35:00
6:55 AM,35.6,35.6,100,30.42,4.0,South,3.5,-,N/A,,Mostly Cloudy,190,2013-01-28 11:55:00
7:15 AM,35.6,35.6,100,30.41,4.0,Calm,Calm,-,N/A,,Light Drizzle,0,2013-01-28 12:15:00
7:35 AM,35.6,35.6,100,30.42,5.0,Calm,Calm,-,N/A,,Overcast,0,2013-01-28 12:35:00
7:55 AM,35.6,35.6,100,30.43,4.0,SSW,3.5,-,N/A,,Scattered Clouds,210,2013-01-28 12:55:00
8:15 AM,35.6,35.6,100,30.42,4.0,Calm,Calm,-,N/A,,Clear,0,2013-01-28 13:15:00
8:35 AM,37.4,37.4,100,30.41,4.0,South,4.6,-,N/A,,Clear,180,2013-01-28 13:35:00
8:55 AM,37.4,37.4,100,30.41,5.0,SSW,3.5,-,N/A,,Clear,210,2013-01-28 13:55:00
9:15 AM,37.4,35.6,93,30.40,5.0,South,4.6,-,N/A,,Clear,190,2013-01-28 14:15:00
9:35 AM,39.2,33.8,81,30.40,7.0,SSW,5.8,-,N/A,,Clear,210,2013-01-28 14:35:00
9:55 AM,42.8,33.8,70,30.40,7.0,SSW,3.5,-,N/A,,Clear,210,2013-01-28 14:55:00
10:15 AM,42.8,33.8,70,30.40,10.0,SSW,5.8,-,N/A,,Clear,210,2013-01-28 15:15:00
10:35 AM,44.6,32.0,61,30.39,10.0,SW,9.2,-,N/A,,Clear,220,2013-01-28 15:35:00
10:55 AM,46.4,32.0,57,30.38,10.0,SSW,10.4,17.3,N/A,,Clear,200,2013-01-28 15:55:00
11:15 AM,48.2,33.8,58,30.37,10.0,WSW,6.9,-,N/A,,Clear,240,2013-01-28 16:15:00
11:35 AM,48.2,33.8,58,30.36,10.0,SW,9.2,-,N/A,,Clear,230,2013-01-28 16:35:00
11:55 AM,50.0,33.8,54,30.35,10.0,SW,8.1,-,N/A,,Clear,220,2013-01-28 16:55:00
12:15 PM,51.8,35.6,54,30.33,10.0,SW,8.1,-,N/A,,Clear,230,2013-01-28 17:15:00
12:35 PM,53.6,35.6,51,30.32,10.0,SW,6.9,-,N/A,,Clear,230,2013-01-28 17:35:00
1:15 PM,53.6,37.4,54,30.29,10.0,SW,9.2,-,N/A,,Overcast,220,2013-01-28 18:15:00
1:35 PM,53.6,37.4,54,30.27,10.0,SSW,8.1,-,N/A,,Overcast,200,2013-01-28 18:35:00
1:55 PM,53.6,39.2,58,30.26,10.0,SSW,6.9,-,N/A,,Overcast,210,2013-01-28 18:55:00
2:15 PM,53.6,39.2,58,30.25,10.0,SSW,3.5,-,N/A,,Overcast,200,2013-01-28 19:15:00
2:35 PM,53.6,41.0,62,30.25,10.0,SSW,6.9,-,N/A,,Overcast,200,2013-01-28 19:35:00
2:55 PM,53.6,41.0,62,30.25,10.0,SSW,5.8,-,N/A,,Overcast,210,2013-01-28 19:55:00
3:15 PM,53.6,41.0,62,30.25,10.0,SW,4.6,-,N/A,,Overcast,220,2013-01-28 20:15:00
3:35 PM,53.6,41.0,62,30.24,10.0,SSW,4.6,-,N/A,,Overcast,200,2013-01-28 20:35:00
3:55 PM,53.6,41.0,62,30.23,10.0,SSW,3.5,-,N/A,,Overcast,210,2013-01-28 20:55:00
4:15 PM,51.8,41.0,67,30.23,10.0,SSW,5.8,-,N/A,,Overcast,210,2013-01-28 21:15:00
4:35 PM,51.8,41.0,67,30.23,10.0,SW,5.8,-,N/A,,Overcast,220,2013-01-28 21:35:00
4:55 PM,51.8,41.0,67,30.24,10.0,SSW,4.6,-,N/A,,Scattered Clouds,210,2013-01-28 21:55:00
5:15 PM,50.0,41.0,71,30.24,10.0,SW,3.5,-,N/A,,Clear,220,2013-01-28 22:15:00
5:35 PM,50.0,41.0,71,30.24,10.0,SSW,6.9,-,N/A,,Clear,210,2013-01-28 22:35:00
5:55 PM,48.2,41.0,76,30.24,10.0,SW,3.5,-,N/A,,Clear,220,2013-01-28 22:55:00
6:15 PM,48.2,41.0,76,30.25,10.0,SSW,3.5,-,N/A,,Clear,200,2013-01-28 23:15:00
6:35 PM,48.2,41.0,76,30.25,10.0,SSW,4.6,-,N/A,,Clear,210,2013-01-28 23:35:00
6:55 PM,48.2,41.0,76,30.25,10.0,SSW,3.5,-,N/A,,Clear,210,2013-01-28 23:55:00
7:15 PM,46.4,39.2,76,30.25,10.0,SSW,6.9,-,N/A,,Scattered Clouds,200,2013-01-29 00:15:00
7:35 PM,46.4,39.2,76,30.25,10.0,SW,4.6,-,N/A,,Scattered Clouds,220,2013-01-29 00:35:00
7:55 PM,46.4,39.2,76,30.24,10.0,SSW,4.6,-,N/A,,Scattered Clouds,210,2013-01-29 00:55:00
8:15 PM,48.2,39.2,71,30.23,10.0,SSW,5.8,-,N/A,,Mostly Cloudy,210,2013-01-29 01:15:00
8:35 PM,48.2,41.0,76,30.23,10.0,Calm,Calm,-,N/A,,Mostly Cloudy,0,2013-01-29 01:35:00
8:55 PM,46.4,41.0,81,30.23,10.0,Calm,Calm,-,N/A,,Mostly Cloudy,0,2013-01-29 01:55:00
9:15 PM,46.4,41.0,81,30.23,10.0,Calm,Calm,-,N/A,,Scattered Clouds,0,2013-01-29 02:15:00
9:35 PM,46.4,41.0,81,30.23,10.0,SSW,3.5,-,N/A,,Scattered Clouds,210,2013-01-29 02:35:00
9:55 PM,46.4,41.0,81,30.22,10.0,South,4.6,-,N/A,,Mostly Cloudy,190,2013-01-29 02:55:00
10:15 PM,46.4,41.0,81,30.22,10.0,SSW,3.5,-,N/A,,Mostly Cloudy,200,2013-01-29 03:15:00
10:35 PM,46.4,41.0,81,30.21,10.0,Calm,Calm,-,N/A,,Scattered Clouds,0,2013-01-29 03:35:00
10:55 PM,46.4,41.0,81,30.22,10.0,SSW,4.6,-,N/A,,Scattered Clouds,200,2013-01-29 03:55:00
11:15 PM,46.4,41.0,81,30.22,7.0,Calm,Calm,-,N/A,,Scattered Clouds,0,2013-01-29 04:15:00
11:35 PM,46.4,41.0,81,30.21,7.0,Calm,Calm,-,N/A,,Scattered Clouds,0,2013-01-29 04:35:00
11:55 PM,46.4,41.0,81,30.22,7.0,SSW,3.5,-,N/A,,Clear,200,2013-01-29 04:55:00